FW5669 Weather Reports


time (UTC)temp
C
wind
direction
speed
KPH
gust
KPH
rain 1hr
cm
rain 24hr
cm
rain mn
cm
humidity
%
barometer
mb
20260903161606 16 70 0.0 8.0 0.00 0.00 0.00 68 1016.5
20260903160002 15 123 0.0 4.8 0.00 0.00 0.00 69 1016.7
20260903154503 15 152 0.0 6.4 0.00 0.00 0.00 70 1016.8
20260903153102 15 55 0.0 6.4 0.00 0.00 0.00 71 1016.8
20260903151502 15 88 1.6 8.0 0.00 0.00 0.00 72 1016.7
20260903150006 14 25 1.6 9.7 0.00 0.00 0.00 74 1016.6
20260903144503 14 89 0.0 4.8 0.00 0.00 0.00 75 1016.7
20260903143004 14 108 1.6 6.4 0.00 0.00 0.00 75 1016.4
20260903141502 14 33 1.6 6.4 0.00 0.00 0.00 76 1016.3
20260903140002 14 41 0.0 6.4 0.00 0.00 0.00 76 1016.3
20260903134611 14 48 0.0 8.0 0.00 0.00 0.00 75 1016.2
20260903133101 14 50 1.6 3.2 0.00 0.00 0.00 74 1016.2
20260903131503 14 63 0.0 6.4 0.00 0.00 0.00 74 1016.4
20260903130002 14 185 0.0 1.6 0.00 0.00 0.00 73 1016.3
20260903124501 14 29 1.6 4.8 0.00 0.00 0.00 72 1016.3
20260903123100 15 68 1.6 4.8 0.00 0.00 0.00 71 1016.3
20260903123002 15 28 1.6 4.8 0.00 0.00 0.00 71 1016.2
20260903121501 15 106 0.0 3.2 0.00 0.00 0.00 71 1016.3
20260903120003 15 54 0.0 3.2 0.00 0.00 0.00 70 1016.6
20260903114502 15 91 0.0 4.8 0.00 0.00 0.00 71 1016.7
20260903113002 15 211 0.0 4.8 0.00 0.00 0.00 71 1016.7
20260903111502 15 5 0.0 8.0 0.00 0.00 0.00 71 1016.7
20260903110001 15 40 1.6 8.0 0.00 0.00 0.00 71 1016.7
20260903104502 15 56 1.6 6.4 0.00 0.00 0.00 71 1016.8
20260903103002 15 64 1.6 8.0 0.00 0.00 0.00 71 1016.7
20260903101504 15 70 0.0 6.4 0.00 0.00 0.00 71 1016.8
20260903100003 15 80 1.6 6.4 0.00 0.00 0.00 71 1016.9
20260903094502 15 58 1.6 4.8 0.00 0.00 0.00 71 1017.1
20260903093007 15 53 0.0 3.2 0.00 0.00 0.00 72 1017.2
20260903091502 15 31 1.6 4.8 0.00 0.00 0.00 72 1017.3
20260903090002 15 37 0.0 3.2 0.00 0.00 0.00 74 1017.3
20260903084503 15 35 1.6 4.8 0.00 0.00 0.00 74 1017.4
20260903083002 15 38 0.0 3.2 0.00 0.00 0.00 75 1017.4
20260903081506 15 23 0.0 1.6 0.00 0.00 0.00 74 1017.3
20260903080002 15 23 0.0 1.6 0.00 0.00 0.00 74 1017.2
20260903074502 15 21 0.0 3.2 0.00 0.00 0.00 74 1017.2
20260903073002 15 50 0.0 4.8 0.00 0.00 0.00 74 1017.4
20260903071502 15 46 0.0 3.2 0.00 0.00 0.00 75 1017.4
20260903070008 15 58 0.0 3.2 0.00 0.00 0.00 74 1017.5
20260903064503 15 41 0.0 3.2 0.00 0.00 0.00 74 1017.2
20260903063005 15 37 1.6 3.2 0.00 0.00 0.00 75 1017.4
20260903061504 15 54 0.0 3.2 0.00 0.00 0.00 75 1017.5
20260903060006 15 64 0.0 3.2 0.00 0.00 0.00 74 1017.6
20260903054503 15 52 0.0 0.0 0.00 0.00 0.00 74 1017.6
20260903053006 15 52 0.0 0.0 0.00 0.00 0.00 74 1017.7
20260903051503 15 52 0.0 0.0 0.00 0.00 0.00 73 1017.7
20260903050006 16 52 0.0 0.0 0.00 0.00 0.00 71 1017.7
20260903044502 16 52 0.0 0.0 0.00 0.00 0.00 70 1017.7
20260903043007 16 45 0.0 0.0 0.00 0.00 0.00 69 1017.6
20260903041502 16 68 0.0 0.0 0.00 0.00 0.00 68 1017.6
20260903040003 17 68 0.0 1.6 0.00 0.00 0.00 67 1017.5
20260903034501 18 96 0.0 1.6 0.00 0.00 0.00 64 1017.2
20260903033103 18 96 0.0 0.0 0.00 0.00 0.00 62 1017.0
20260903031506 18 96 0.0 0.0 0.00 0.00 0.00 61 1016.8
20260903030003 19 168 0.0 0.0 0.00 0.00 0.00 59 1016.7
20260903024503 20 169 0.0 3.2 0.00 0.00 0.00 58 1016.8
20260903023130 20 199 1.6 4.8 0.00 0.00 0.00 56 1016.9
20260903021508 21 206 0.0 4.8 0.00 0.00 0.00 53 1017.0
20260903020107 21 168 1.6 9.7 0.00 0.00 0.00 53 1017.1
20260903014502 21 192 3.2 8.0 0.00 0.00 0.00 52 1017.0
20260903013010 21 193 3.2 11.3 0.00 0.00 0.00 51 1017.0
20260903011505 21 141 1.6 6.4 0.00 0.00 0.00 54 1017.2
20260903004502 22 185 4.8 12.9 0.00 0.00 0.00 52 1017.2
20260903003003 22 158 3.2 8.0 0.00 0.00 0.00 52 1017.4
20260903001504 22 193 0.0 6.4 0.00 0.00 0.00 51 1017.6
20260903000105 22 191 3.2 11.3 0.00 0.00 0.00 49 1017.5
20260902234501 22 115 0.0 4.8 0.00 0.00 0.00 50 1017.6
20260902233004 22 206 3.2 9.7 0.00 0.00 0.00 49 1017.6
20260902231502 22 88 3.2 6.4 0.00 0.00 0.00 49 1017.6
20260902230002 22 216 3.2 8.0 0.00 0.00 0.00 50 1017.9
20260902224505 22 147 1.6 9.7 0.00 0.00 0.00 53 1018.2
20260902223004 21 201 1.6 4.8 0.00 0.00 0.00 55 1018.3
20260902221502 21 74 1.6 8.0 0.00 0.00 0.00 56 1018.4
20260902220007 22 140 1.6 11.3 0.00 0.00 0.00 55 1018.6
20260902214509 21 211 1.6 6.4 0.00 0.00 0.00 57 1018.6
20260902213005 21 237 1.6 6.4 0.00 0.00 0.00 57 1018.9
20260902211501 21 158 3.2 8.0 0.00 0.00 0.00 58 1018.8
20260902210003 21 195 3.2 6.4 0.00 0.00 0.00 59 1018.8
20260902204503 21 185 3.2 9.7 0.00 0.00 0.00 57 1018.8
20260902203002 21 193 1.6 8.0 0.00 0.00 0.00 59 1019.0
20260902201504 20 221 0.0 9.7 0.00 0.00 0.00 60 1019.1
20260902200003 20 188 3.2 8.0 0.00 0.00 0.00 60 1019.3
20260902194503 20 149 3.2 6.4 0.00 0.00 0.00 59 1019.3
20260902193002 20 198 1.6 8.0 0.00 0.00 0.00 59 1019.4
20260902191505 20 220 1.6 11.3 0.00 0.00 0.00 60 1019.5
20260902190003 20 227 1.6 8.0 0.00 0.00 0.00 58 1019.7
20260902184502 20 188 3.2 6.4 0.00 0.00 0.00 59 1019.6
20260902183003 19 85 1.6 6.4 0.00 0.00 0.00 62 1019.5
20260902181502 19 77 1.6 8.0 0.00 0.00 0.00 61 1019.5
20260902180005 19 122 1.6 6.4 0.00 0.00 0.00 61 1019.6
20260902174505 19 145 1.6 9.7 0.00 0.00 0.00 62 1019.6
20260902173002 18 157 3.2 6.4 0.00 0.00 0.00 62 1019.6
20260902171503 18 191 1.6 4.8 0.00 0.00 0.00 63 1019.4
20260902170002 18 143 1.6 6.4 0.00 0.00 0.00 63 1019.3
20260902164506 17 166 1.6 9.7 0.00 0.00 0.00 63 1019.3
20260902163002 17 62 4.8 11.3 0.00 0.00 0.00 60 1019.1